TimeAKDT,TemperatureF,Dew PointF,Humidity,Sea Level PressureIn,VisibilityMPH,Wind Direction,Wind SpeedMPH,Gust SpeedMPH,PrecipitationIn,Events,Conditions,WindDirDegrees,DateUTC
12:53 AM,21.9,19.9,92,29.42,6.0,Calm,Calm,-,0.00,Snow,Light Snow,0,2012-03-17 08:53:00
1:53 AM,21.9,19.9,92,29.43,10.0,Calm,Calm,-,0.00,,Overcast,0,2012-03-17 09:53:00
2:53 AM,21.9,19.9,92,29.44,10.0,Calm,Calm,-,N/A,,Overcast,0,2012-03-17 10:53:00
3:53 AM,23.0,19.9,88,29.45,10.0,Calm,Calm,-,N/A,,Overcast,0,2012-03-17 11:53:00
4:53 AM,21.9,21.0,96,29.46,10.0,Calm,Calm,-,N/A,,Overcast,0,2012-03-17 12:53:00
5:36 AM,23.0,19.4,86,29.46,10.0,Calm,Calm,-,N/A,,Overcast,0,2012-03-17 13:36:00
5:53 AM,21.9,19.9,92,29.47,10.0,Calm,Calm,-,N/A,,Overcast,0,2012-03-17 13:53:00
6:53 AM,21.0,19.9,96,29.48,10.0,Calm,Calm,-,N/A,,Overcast,0,2012-03-17 14:53:00
7:53 AM,18.0,18.0,100,29.48,10.0,Calm,Calm,-,N/A,,Scattered Clouds,0,2012-03-17 15:53:00
8:53 AM,18.0,17.1,96,29.49,10.0,Calm,Calm,-,N/A,,Overcast,0,2012-03-17 16:53:00
9:53 AM,18.0,18.0,100,29.52,10.0,Calm,Calm,-,N/A,,Mostly Cloudy,0,2012-03-17 17:53:00
10:53 AM,21.9,21.9,100,29.53,10.0,Calm,Calm,-,N/A,,Mostly Cloudy,0,2012-03-17 18:53:00
11:53 AM,25.0,21.0,85,29.54,10.0,Calm,Calm,-,N/A,,Mostly Cloudy,0,2012-03-17 19:53:00
12:53 PM,27.0,21.0,78,29.56,10.0,Calm,Calm,-,N/A,,Mostly Cloudy,0,2012-03-17 20:53:00
1:53 PM,26.1,19.9,78,29.56,10.0,South,4.6,-,N/A,,Mostly Cloudy,190,2012-03-17 21:53:00
2:53 PM,26.1,19.0,75,29.57,10.0,SSW,3.5,-,N/A,,Mostly Cloudy,210,2012-03-17 22:53:00
3:53 PM,27.0,18.0,69,29.57,10.0,South,4.6,-,N/A,,Mostly Cloudy,190,2012-03-17 23:53:00
4:53 PM,27.0,18.0,69,29.59,10.0,SSW,3.5,-,N/A,,Mostly Cloudy,210,2012-03-18 00:53:00
5:53 PM,27.0,18.0,69,29.59,10.0,Calm,Calm,-,N/A,,Scattered Clouds,0,2012-03-18 01:53:00
6:53 PM,26.1,17.1,69,29.60,10.0,WSW,8.1,-,N/A,,Partly Cloudy,250,2012-03-18 02:53:00
7:53 PM,24.1,15.1,69,29.61,10.0,West,5.8,-,N/A,,Partly Cloudy,260,2012-03-18 03:53:00
8:53 PM,24.1,19.0,81,29.62,10.0,WSW,9.2,-,N/A,,Scattered Clouds,250,2012-03-18 04:53:00
9:28 PM,24.8,19.4,80,29.62,10.0,WSW,8.1,-,N/A,,Overcast,240,2012-03-18 05:28:00
9:53 PM,24.1,18.0,77,29.63,10.0,West,6.9,-,N/A,,Overcast,260,2012-03-18 05:53:00
10:53 PM,24.1,18.0,77,29.65,10.0,WSW,9.2,-,N/A,,Overcast,250,2012-03-18 06:53:00
11:53 PM,23.0,17.1,78,29.65,10.0,WSW,8.1,-,N/A,,Overcast,250,2012-03-18 07:53:00